Weather History for KBRO - May, 2013

Change the Weather History Date:

Saturday, May 4, 2013

  Actual Average Record
Temperature  
Mean Temperature 66 °F 78 °F  
Max Temperature 80 °F 86 °F 99 °F (1999)
Min Temperature 51 °F 70 °F 51 °F (2013)
Degree Days  
Heating Degree Days 0 0  
Month to date heating degree days 1 0  
Since 1 July heating degree days 329 554  
Cooling Degree Days 1 13  
Month to date cooling degree days 28 52  
Year to date cooling degree days 687 669  
Growing Degree Days 16 (Base 50)    
Moisture  
Dew Point 45 °F    
Average Humidity 52    
Maximum Humidity 83    
Minimum Humidity 21    
Precipitation  
Precipitation 0.00 in 0.08 in 2.13 in (1966)
Month to date precipitation 0.00 0.26  
Year to date precipitation 4.86 5.38  
Sea Level Pressure  
Sea Level Pressure 30.03 in    
Wind  
Wind Speed 6 mph (SE)    
Max Wind Speed 20 mph    
Max Gust Speed 23 mph    
Visibility 10 miles    
Events      
T = Trace of Precipitation, MM = Missing Value Source: NWS Daily Summary

Daily Weather History Graph

Daily Weather History Graph

Search for Another Location

Airport or City:

Trip Planner

Search our weather history database for the weather conditions in past years. The results will help you decide how hot, cold, wet, or windy it might be!

Date:

Astronomy

May. 04, 2013 Rise Set
Actual Time 6:50 AM CDT 8:02 PM CDT
Civil Twilight 6:25 AM CDT 8:27 PM CDT
Nautical Twilight 5:56 AM CDT 8:56 PM CDT
Astronomical Twilight 5:27 AM CDT 9:26 PM CDT
Moon 3:18 AM CDT (5/4) 3:29 PM CDT (5/4)
Length of Visible Light 14h 01m
Length of Day
13h 12m
Waning Crescent, 27% of the Moon is Illuminated
May 4
Waning Crescent
May 9
New
May 17
First Quarter
May 24
Full
May 31
Last Quarter

Hourly Weather History & Observations

Time (CDT) Temp. Dew Point Humidity Pressure Visibility Wind Dir Wind Speed Gust Speed Precip Events Conditions
12:53 AM 54.0 °F 46.0 °F 75% 30.14 in 10.0 mi Calm Calm - N/A   Clear
1:53 AM 55.0 °F 46.0 °F 72% 30.12 in 10.0 mi Calm Calm - N/A   Clear
2:53 AM 54.0 °F 46.0 °F 75% 30.10 in 10.0 mi Calm Calm - N/A   Clear
3:53 AM 55.0 °F 46.0 °F 72% 30.09 in 10.0 mi Calm Calm - N/A   Clear
4:53 AM 52.0 °F 46.0 °F 80% 30.08 in 10.0 mi Calm Calm - N/A   Clear
5:53 AM 53.1 °F 45.0 °F 74% 30.07 in 10.0 mi Calm Calm - N/A   Clear
6:53 AM 52.0 °F 46.0 °F 80% 30.08 in 10.0 mi Calm Calm - N/A   Clear
7:53 AM 57.0 °F 50.0 °F 77% 30.09 in 10.0 mi Calm Calm - N/A   Clear
8:53 AM 66.0 °F 46.9 °F 50% 30.09 in 10.0 mi South 3.5 mph - N/A   Clear
9:53 AM 70.0 °F 44.1 °F 39% 30.09 in 10.0 mi ESE 5.8 mph - N/A   Clear
10:53 AM 73.0 °F 39.9 °F 30% 30.08 in 10.0 mi Variable 3.5 mph - N/A   Clear
11:53 AM 75.9 °F 39.0 °F 26% 30.06 in 10.0 mi ESE 8.1 mph - N/A   Clear
12:53 PM 75.9 °F 39.0 °F 26% 30.03 in 10.0 mi Variable 4.6 mph - N/A   Clear
1:53 PM 79.0 °F 39.0 °F 24% 30.01 in 10.0 mi East 11.5 mph - N/A   Clear
2:53 PM 79.0 °F 37.0 °F 22% 29.99 in 10.0 mi SSE 9.2 mph - N/A   Clear
3:53 PM 80.1 °F 37.9 °F 22% 29.96 in 10.0 mi ESE 11.5 mph 18.4 mph N/A   Clear
4:53 PM 79.0 °F 37.0 °F 22% 29.94 in 10.0 mi SE 13.8 mph 19.6 mph N/A   Clear
5:53 PM 75.9 °F 41.0 °F 29% 29.93 in 10.0 mi SSE 15.0 mph - N/A   Clear
6:53 PM 73.0 °F 45.0 °F 37% 29.94 in 10.0 mi SSE 13.8 mph - N/A   Clear
7:53 PM 69.1 °F 48.9 °F 49% 29.95 in 10.0 mi SSE 9.2 mph - N/A   Clear
8:53 PM 66.0 °F 52.0 °F 60% 29.96 in 10.0 mi SE 8.1 mph - N/A   Clear
9:53 PM 64.9 °F 53.1 °F 65% 29.96 in 10.0 mi ESE 4.6 mph - N/A   Clear
10:53 PM 64.0 °F 54.0 °F 70% 29.98 in 10.0 mi SE 6.9 mph - N/A   Clear
11:53 PM 62.1 °F 53.1 °F 72% 30.00 in 10.0 mi South 3.5 mph - N/A   Clear